This is the latest recevied weather packets stored in our database for station/object OH3FZQ-L1. If no packets are shown the sender has not sent any weather packets the latest 10 day(s).
| Time | Temp. | Humidity | Pressure | Rain* | Wind** | Luminosity | Snow |
|---|---|---|---|---|---|---|---|
| 1777527591 | 20.56° C | 45% | 1012.6 hPa | - | - | - | - |
| 1777526691 | 21.11° C | 45% | 1012.4 hPa | - | - | - | - |
| 1777525790 | 20.56° C | 45% | 1012.4 hPa | - | - | - | - |
| 1777524890 | 21.11° C | 46% | 1012.8 hPa | - | - | - | - |
| 1777523990 | 20.56° C | 48% | 1013 hPa | - | - | - | - |
| 1777523090 | 21.11° C | 48% | 1012.9 hPa | - | - | - | - |
| 1777522190 | 21.11° C | 49% | 1013 hPa | - | - | - | - |
| 1777521290 | 21.11° C | 53% | 1013 hPa | - | - | - | - |
| 1777520536 | 21.11° C | 63% | 1013 hPa | - | - | - | - |
| 1777519636 | 20.56° C | 42% | 1013.1 hPa | - | - | - | - |
| 1777518736 | 20.56° C | 42% | 1013 hPa | - | - | - | - |
| 1777518129 | 20.56° C | 42% | 1013.2 hPa | - | - | - | - |
| 1777517229 | 20.56° C | 42% | 1013.1 hPa | - | - | - | - |
| 1777516329 | 20.56° C | 42% | 1013.1 hPa | - | - | - | - |
| 1777515429 | 20.56° C | 42% | 1013.4 hPa | - | - | - | - |
| 1777514529 | 20.56° C | 42% | 1013.4 hPa | - | - | - | - |
| 1777513638 | 20.56° C | 42% | 1013.5 hPa | - | - | - | - |
| 1777512737 | 20.56° C | 42% | 1013.5 hPa | - | - | - | - |
| 1777511836 | 20.56° C | 42% | 1013.6 hPa | - | - | - | - |
| 1777510935 | 20.56° C | 42% | 1013.8 hPa | - | - | - | - |
| 1777510034 | 20.56° C | 42% | 1013.8 hPa | - | - | - | - |
| 1777508232 | 20.56° C | 42% | 1014.1 hPa | - | - | - | - |
| 1777507330 | 21.11° C | 42% | 1014.3 hPa | - | - | - | - |
| 1777506430 | 20.56° C | 42% | 1014.4 hPa | - | - | - | - |
| 1777501929 | 20.56° C | 42% | 1014.5 hPa | - | - | - | - |
* Rain since midnight (hover to see other rain measurements)
** Current wind speed in m/s (hover to see current wind gust speed)